Flag for Russia Weather past 2 weeks in Syktyvkar, Russia

Now
28 °F

Snow showers. Overcast.


Feels Like: 16 °F
Forecast: 22 / 27 °F
Wind: 17 mph from South

Location: Syktyvkar Airport

Current Time: Feb 1, 2015 at 9:15:07 PM

Latest Report: Feb 1, 2015 at 8:30 PM


Visibility: 1 mi

Pressure: 29.62 "Hg

Humidity: 93%

Dew point: 27 °F

Location of SyktyvkarLocation

Historic Weather in Syktyvkar — Graph

°F

Syktyvkar temperature yesterday

Maximum temperature yesterday: 21 °F (at 12:00 AM)
Minimum temperature yesterday: 18 °F (at 8:00 AM)
Average temperature yesterday: 19 °F

Past Weeks' High & Low Weather Summary

 TemperatureHumidityPressure
High32 °F (Jan 17, 8:30 PM)100% (Jan 18, 2:00 PM)30.74 "Hg (Jan 18, 2:00 PM)
Low-29 °F (Jan 23, 6:00 AM)67% (Jan 23, 3:00 AM)29.33 "Hg (Jan 18, 3:00 PM)
Average14 °F84%30.01 "Hg
* Reported Jan 17 8:00 PM — Feb 1 8:00 PM, Syktyvkar, Weather by CustomWeather, © 2014

Note: Actual official high and low records may vary slightly from our data, if they occured in-between our weather recording intervals... More about our weather records

Advertising

Syktyvkar weather history for previous 24 hours

 ConditionsComfort  
Time TempWeatherWind HumidityBarometerVisibility
8:00 PM
Feb 1
30 °FHeavy snow. Ice fog.15 mph86%29.62 "Hg1 mi
7:30 PM30 °FSnow showers. Mostly cloudy.17 mph86%29.62 "Hg1 mi
7:00 PM30 °FSnow flurries. Mostly cloudy.17 mph80%29.65 "Hg1 mi
6:30 PM30 °FSnow flurries. Mostly cloudy.17 mph80%29.65 "Hg2 mi
6:00 PM30 °FSnow flurries. Mostly cloudy.17 mph80%29.65 "Hg2 mi
5:30 PM30 °FSnow flurries. Mostly cloudy.15 mph80%29.65 "Hg2 mi
5:00 PM30 °FMostly cloudy.17 mph75%29.65 "Hg5 mi
4:30 PM30 °FMostly cloudy.15 mph75%29.68 "Hg6 mi
4:00 PM30 °FMostly cloudy.13 mph75%29.68 "Hg5 mi
3:30 PM30 °FMostly cloudy.13 mph75%29.68 "Hg6 mi
3:00 PM28 °FMostly cloudy.15 mph80%29.71 "Hg5 mi
2:30 PM28 °FMostly cloudy.15 mph80%29.71 "Hg5 mi
2:00 PM28 °FMostly cloudy.15 mph80%29.71 "Hg4 mi
1:30 PM28 °FMostly cloudy.15 mph80%29.71 "Hg4 mi
1:00 PM28 °FMostly cloudy.15 mph80%29.71 "Hg6 mi
12:30 PM28 °FMostly cloudy.15 mph80%29.71 "Hg6 mi
12:00 PM27 °FMostly cloudy.13 mph86%29.74 "Hg6 mi
11:30 AM27 °FMostly cloudy.13 mph86%29.74 "Hg5 mi
11:00 AM27 °FMostly cloudy.15 mph80%29.74 "Hg4 mi
10:30 AM25 °FMostly cloudy.15 mph86%29.74 "Hg4 mi
10:00 AM25 °FMostly cloudy.15 mph86%29.74 "Hg4 mi
9:30 AM25 °FSnow flurries. Mostly cloudy.13 mph86%29.74 "Hg3 mi
9:00 AM25 °FSnow flurries. Overcast.15 mph86%29.74 "Hg2 mi
8:30 AM25 °FSnow flurries. Overcast.15 mph86%29.77 "Hg3 mi
8:00 AM25 °FSnow flurries. Overcast.13 mph86%29.77 "Hg2 mi
7:30 AM25 °FSnow flurries. Overcast.15 mph86%29.74 "Hg2 mi
7:00 AM25 °FSnow flurries. Overcast.17 mph86%29.74 "Hg3 mi
6:48 AM25 °FSnow flurries. Overcast.15 mph86%29.74 "Hg3 mi
6:00 AM25 °FLight freezing rain. Overcast.15 mph93%29.74 "Hg3 mi
5:30 AM25 °FLight freezing rain. Overcast.13 mph93%29.74 "Hg3 mi
5:00 AM25 °FLight freezing rain. Overcast.13 mph93%29.77 "Hg2 mi
4:30 AM25 °FLight freezing rain. Overcast.13 mph93%29.77 "Hg3 mi
4:00 AM25 °FLight freezing rain. Overcast.13 mph86%29.77 "Hg3 mi
3:30 AM23 °FLight freezing rain. Mostly cloudy.15 mph93%29.77 "Hg3 mi
3:00 AM23 °FLight freezing rain. Mostly cloudy.13 mph93%29.77 "Hg4 mi
2:30 AM23 °FSnow flurries. Mostly cloudy.10 mph93%29.80 "Hg4 mi
2:00 AM23 °FSnow flurries. Mostly cloudy.8 mph86%29.80 "Hg2 mi
1:30 AM23 °FSnow flurries. Mostly cloudy.8 mph86%29.83 "Hg4 mi
1:00 AM21 °FSnow flurries. Mostly cloudy.6 mph93%29.83 "Hg2 mi
12:00 AM21 °FSnow flurries. Mostly cloudy.6 mph93%29.86 "Hg4 mi
11:30 PM
Jan 31
21 °FSnow flurries. Mostly cloudy.8 mph93%29.86 "Hg3 mi
11:00 PM21 °FSnow flurries. Mostly cloudy.8 mph86%29.86 "Hg3 mi
10:30 PM21 °FSnow flurries. Mostly cloudy.8 mph86%29.86 "Hg5 mi
10:00 PM21 °FSnow flurries. Mostly cloudy.10 mph86%29.86 "Hg5 mi
9:30 PM19 °FSnow flurries. Mostly cloudy.10 mph93%29.86 "Hg3 mi
9:00 PM19 °FSnow flurries. Mostly cloudy.10 mph93%29.89 "Hg3 mi
Weather by CustomWeather, © 2014

See weather overviewHow to use our weather pages